Location: Montr�al
(45.5000°N, 73.5830°W)
Time: 13:45:40
(UTC-04:00)

Cosmos 1151 Rocket - Visible Passes

Search period start: 23 April 2017 00:00
Search period end: 03 May 2017 00:00
Orbit: 592 x 617 km, 82.5° (Epoch: 21 April)

Date Brightness Start Highest point End Pass type
(mag) Time Alt. Az. Time Alt. Az. Time Alt. Az.
23 Apr 6.2 21:11:01 10° WSW 21:13:43 16° WNW 21:16:25 10° NNW visible
24 Apr 6.9 21:26:27 10° WNW 21:26:47 10° WNW 21:27:07 10° WNW visible
27 Apr 6.0 20:23:48 10° WSW 20:27:12 22° WNW 20:30:36 10° NNW visible
28 Apr 6.7 04:51:42 10° NE 04:53:11 12° ENE 04:54:39 10° E visible
28 Apr 6.5 20:37:50 10° W 20:40:12 14° WNW 20:42:35 10° NNW visible
29 Apr 6.2 05:03:15 10° NNE 05:06:13 18° ENE 05:09:11 10° ESE visible
